Time,TemperatureF,DewpointF,PressureIn,WindDirection,WindDirectionDegrees,WindSpeedMPH,WindSpeedGustMPH,Humidity,HourlyPrecipIn,Conditions,Clouds,dailyrainin,SolarRadiationWatts/m^2,SoftwareType,DateUTC
2013-05-25 00:09:00,42.8,40.9,29.80,NNW,327,6.0,19.0,93,0.02,,-RA,0.00,0.00,VWS V14.01,2013-05-25 04:09:00,
2013-05-25 00:19:00,42.9,41.0,29.80,NNW,335,8.0,18.0,93,0.01,,-RA,0.00,0.00,VWS V14.01,2013-05-25 04:19:00,
2013-05-25 00:29:00,42.9,41.0,29.80,NNW,336,7.0,16.0,93,0.01,,-RA,0.00,0.00,VWS V14.01,2013-05-25 04:29:00,
2013-05-25 00:39:00,42.9,41.0,29.80,NNW,333,7.0,17.0,93,0.01,,-RA,0.00,0.00,VWS V14.01,2013-05-25 04:39:00,
2013-05-25 00:49:00,42.8,40.9,29.79,NNW,333,11.0,14.0,93,0.01,,-RA,0.00,0.00,VWS V14.01,2013-05-25 04:49:00,
2013-05-25 00:59:00,42.8,40.9,29.80,NNW,327,7.0,17.0,93,0.01,,-RA,0.00,0.00,VWS V14.01,2013-05-25 04:59:00,
2013-05-25 01:09:00,42.9,41.0,29.79,NW,324,4.0,15.0,93,0.00,,-RA,0.00,0.00,VWS V14.01,2013-05-25 05:09:00,
2013-05-25 01:19:00,42.8,40.9,29.78,NNW,329,6.0,13.0,93,0.00,,-RA,0.00,0.00,VWS V14.01,2013-05-25 05:19:00,
2013-05-25 01:29:00,42.7,40.8,29.78,NNW,329,5.0,17.0,93,0.02,,-RA,0.02,0.00,VWS V14.01,2013-05-25 05:29:00,
2013-05-25 01:39:00,42.7,40.8,29.78,NNW,333,8.0,14.0,93,0.03,,-RA,0.03,0.00,VWS V14.01,2013-05-25 05:39:00,
2013-05-25 01:49:00,42.7,41.1,29.78,NW,318,11.0,15.0,94,0.03,,-RA,0.03,0.00,VWS V14.01,2013-05-25 05:49:00,
2013-05-25 01:59:00,42.6,41.0,29.77,NW,315,3.0,18.0,94,0.04,,-RA,0.04,0.00,VWS V14.01,2013-05-25 05:59:00,
2013-05-25 02:09:00,42.6,41.0,29.78,NW,326,6.0,13.0,94,0.05,,-RA,0.05,0.00,VWS V14.01,2013-05-25 06:09:00,
2013-05-25 02:19:00,42.6,41.0,29.79,NW,319,2.0,11.0,94,0.05,,-RA,0.05,0.00,VWS V14.01,2013-05-25 06:19:00,
2013-05-25 02:29:00,42.5,40.9,29.79,WNW,288,5.0,11.0,94,0.06,,-RA,0.06,0.00,VWS V14.01,2013-05-25 06:29:00,
2013-05-25 02:39:00,42.4,40.8,29.78,West,268,8.0,19.0,94,0.07,,-RA,0.09,0.00,VWS V14.01,2013-05-25 06:39:00,
2013-05-25 02:49:00,42.2,40.6,29.78,NW,323,5.0,14.0,94,0.06,,-RA,0.09,0.00,VWS V14.01,2013-05-25 06:49:00,
2013-05-25 02:59:00,42.2,40.6,29.77,NW,315,4.0,15.0,94,0.07,,-RA,0.10,0.00,VWS V14.01,2013-05-25 06:59:00,
2013-05-25 03:09:00,42.1,40.5,29.77,NNW,340,4.0,15.0,94,0.07,,-RA,0.11,0.00,VWS V14.01,2013-05-25 07:09:00,
2013-05-25 03:19:00,42.1,40.5,29.77,North,351,15.0,21.0,94,0.06,,-RA,0.11,0.00,VWS V14.01,2013-05-25 07:19:00,
2013-05-25 03:29:00,42.1,40.5,29.77,NNW,335,4.0,19.0,94,0.06,,-RA,0.11,0.00,VWS V14.01,2013-05-25 07:29:00,
2013-05-25 03:39:00,42.0,40.4,29.77,North,360,7.0,16.0,94,0.05,,-RA,0.11,0.00,VWS V14.01,2013-05-25 07:39:00,
2013-05-25 03:49:00,42.0,40.1,29.76,NNW,344,8.0,16.0,93,0.02,,-RA,0.11,0.00,VWS V14.01,2013-05-25 07:49:00,
2013-05-25 03:59:00,41.9,40.3,29.76,NNW,333,4.0,14.0,94,0.03,,-RA,0.12,0.00,VWS V14.01,2013-05-25 07:59:00,
2013-05-25 04:09:00,41.9,40.3,29.77,NW,322,10.0,13.0,94,0.02,,-RA,0.12,0.00,VWS V14.01,2013-05-25 08:09:00,
2013-05-25 04:19:00,41.9,40.3,29.76,NW,323,6.0,17.0,94,0.01,,-RA,0.12,0.00,VWS V14.01,2013-05-25 08:19:00,
2013-05-25 04:29:00,41.8,40.2,29.77,NNW,329,6.0,16.0,94,0.06,,-RA,0.17,0.00,VWS V14.01,2013-05-25 08:29:00,
2013-05-25 04:39:00,41.8,40.2,29.77,NNW,337,5.0,13.0,94,0.10,,-RA,0.21,0.00,VWS V14.01,2013-05-25 08:39:00,
2013-05-25 04:49:00,41.7,40.1,29.76,NNW,336,8.0,15.0,94,0.13,,-RA,0.24,0.00,VWS V14.01,2013-05-25 08:49:00,
2013-05-25 04:59:00,41.6,40.0,29.76,NNW,327,4.0,16.0,94,0.15,,-RA,0.26,0.00,VWS V14.01,2013-05-25 08:59:00,
2013-05-25 05:09:00,41.6,40.0,29.76,North,9,3.0,22.0,94,0.16,,-RA,0.28,0.00,VWS V14.01,2013-05-25 09:09:00,
2013-05-25 05:19:00,41.6,39.7,29.76,NW,307,5.0,18.0,93,0.17,,-RA,0.29,0.00,VWS V14.01,2013-05-25 09:19:00,
2013-05-25 05:29:00,41.7,39.8,29.75,NNW,327,7.0,18.0,93,0.18,,-RA,0.30,5.00,VWS V14.01,2013-05-25 09:29:00,
2013-05-25 05:39:00,41.7,39.8,29.76,WNW,293,9.0,16.0,93,0.13,,-RA,0.30,7.00,VWS V14.01,2013-05-25 09:39:00,
2013-05-25 05:49:00,41.7,39.8,29.76,NW,309,6.0,16.0,93,0.10,,-RA,0.31,7.00,VWS V14.01,2013-05-25 09:49:00,
2013-05-25 05:59:00,41.7,39.8,29.75,NW,318,8.0,16.0,93,0.07,,-RA,0.31,7.00,VWS V14.01,2013-05-25 09:59:00,
2013-05-25 06:09:00,41.7,39.8,29.76,NW,315,6.0,14.0,93,0.06,,-RA,0.32,9.00,VWS V14.01,2013-05-25 10:09:00,
2013-05-25 06:19:00,41.6,39.7,29.76,NW,325,6.0,12.0,93,0.04,,-RA,0.32,16.00,VWS V14.01,2013-05-25 10:19:00,
2013-05-25 06:29:00,41.6,39.7,29.76,NNW,331,8.0,15.0,93,0.04,,-RA,0.33,26.00,VWS V14.01,2013-05-25 10:29:00,
2013-05-25 06:39:00,41.7,39.8,29.76,NNW,341,11.0,13.0,93,0.03,,-RA,0.33,25.00,VWS V14.01,2013-05-25 10:39:00,
2013-05-25 06:49:00,41.7,39.8,29.76,NNW,334,6.0,17.0,93,0.03,,-RA,0.33,28.00,VWS V14.01,2013-05-25 10:49:00,
2013-05-25 06:59:00,41.8,39.9,29.76,NNW,335,12.0,14.0,93,0.02,,-RA,0.33,46.00,VWS V14.01,2013-05-25 10:59:00,
2013-05-25 07:09:00,41.9,40.3,29.76,NNW,340,5.0,14.0,94,0.02,,-RA,0.33,56.00,VWS V14.01,2013-05-25 11:09:00,
2013-05-25 07:19:00,42.0,40.4,29.76,WNW,303,3.0,11.0,94,0.01,,-RA,0.33,51.00,VWS V14.01,2013-05-25 11:19:00,
2013-05-25 07:29:00,42.0,40.4,29.76,NNW,339,9.0,10.0,94,0.02,,-RA,0.34,60.00,VWS V14.01,2013-05-25 11:29:00,
2013-05-25 07:39:00,42.0,40.4,29.76,NW,325,13.0,13.0,94,0.01,,-RA,0.34,67.00,VWS V14.01,2013-05-25 11:39:00,
2013-05-25 07:49:00,41.9,40.3,29.76,NNW,327,3.0,13.0,94,0.01,,-RA,0.34,60.00,VWS V14.01,2013-05-25 11:49:00,
2013-05-25 07:59:00,41.9,40.3,29.76,NW,304,7.0,13.0,94,0.02,,-RA,0.35,69.00,VWS V14.01,2013-05-25 11:59:00,
2013-05-25 08:09:00,41.9,40.3,29.76,WNW,294,3.0,12.0,94,0.03,,-RA,0.36,76.00,VWS V14.01,2013-05-25 12:09:00,
2013-05-25 08:19:00,41.9,40.3,29.76,WNW,302,2.0,14.0,94,0.04,,-RA,0.37,86.00,VWS V14.01,2013-05-25 12:19:00,
2013-05-25 08:29:00,42.0,40.4,29.76,NNE,25,7.0,15.0,94,0.04,,-RA,0.37,102.00,VWS V14.01,2013-05-25 12:29:00,
2013-05-25 08:39:00,42.1,40.5,29.76,NW,326,9.0,22.0,94,0.04,,-RA,0.38,123.00,VWS V14.01,2013-05-25 12:39:00,
2013-05-25 08:49:00,42.2,40.6,29.76,NNW,331,2.0,13.0,94,0.04,,-RA,0.38,165.00,VWS V14.01,2013-05-25 12:49:00,
2013-05-25 08:59:00,42.6,41.0,29.76,NNW,338,8.0,12.0,94,0.04,,-RA,0.38,181.00,VWS V14.01,2013-05-25 12:59:00,
2013-05-25 09:09:00,42.5,40.9,29.76,NW,321,12.0,15.0,94,0.03,,-RA,0.38,220.00,VWS V14.01,2013-05-25 13:09:00,
2013-05-25 09:19:00,42.5,40.6,29.75,NNW,327,8.0,14.0,93,0.03,,-RA,0.39,139.00,VWS V14.01,2013-05-25 13:19:00,
2013-05-25 09:29:00,42.3,40.4,29.75,NW,310,5.0,18.0,93,0.02,,-RA,0.39,141.00,VWS V14.01,2013-05-25 13:29:00,
2013-05-25 09:39:00,42.2,40.3,29.75,NNW,342,6.0,18.0,93,0.03,,-RA,0.40,162.00,VWS V14.01,2013-05-25 13:39:00,
2013-05-25 09:49:00,42.3,40.4,29.75,NW,319,4.0,13.0,93,0.03,,-RA,0.41,163.00,VWS V14.01,2013-05-25 13:49:00,
2013-05-25 09:59:00,42.4,40.5,29.75,NW,326,4.0,14.0,93,0.03,,-RA,0.41,148.00,VWS V14.01,2013-05-25 13:59:00,
2013-05-25 10:09:00,42.1,40.2,29.75,NNW,337,0.0,14.0,93,0.03,,-RA,0.41,111.00,VWS V14.01,2013-05-25 14:09:00,
2013-05-25 10:19:00,41.8,39.9,29.75,NNE,27,8.0,14.0,93,0.04,,-RA,0.42,104.00,VWS V14.01,2013-05-25 14:19:00,
2013-05-25 10:29:00,41.5,39.6,29.75,NW,310,3.0,15.0,93,0.03,,-RA,0.42,100.00,VWS V14.01,2013-05-25 14:29:00,
2013-05-25 10:39:00,41.3,39.4,29.75,NW,323,12.0,16.0,93,0.04,,-RA,0.43,151.00,VWS V14.01,2013-05-25 14:39:00,
2013-05-25 10:49:00,41.4,39.8,29.75,NNW,335,7.0,17.0,94,0.04,,-RA,0.44,257.00,VWS V14.01,2013-05-25 14:49:00,
2013-05-25 10:59:00,41.7,39.8,29.75,NNW,334,6.0,22.0,93,0.03,,-RA,0.44,241.00,VWS V14.01,2013-05-25 14:59:00,
2013-05-25 11:09:00,41.9,40.0,29.75,North,355,4.0,17.0,93,0.03,,-RA,0.44,309.00,VWS V14.01,2013-05-25 15:09:00,
2013-05-25 11:19:00,42.4,40.5,29.75,NW,317,5.0,18.0,93,0.03,,-RA,0.44,336.00,VWS V14.01,2013-05-25 15:19:00,
2013-05-25 11:29:00,42.8,40.9,29.74,NNW,340,8.0,19.0,93,0.02,,-RA,0.44,367.00,VWS V14.01,2013-05-25 15:29:00,
2013-05-25 11:39:00,42.9,40.7,29.74,NNW,338,7.0,18.0,92,0.02,,-RA,0.44,357.00,VWS V14.01,2013-05-25 15:39:00,
2013-05-25 11:49:00,42.7,40.5,29.74,NNW,340,6.0,21.0,92,0.01,,-RA,0.44,403.00,VWS V14.01,2013-05-25 15:49:00,
2013-05-25 11:59:00,43.1,40.9,29.73,NNW,333,9.0,16.0,92,0.00,,-RA,0.44,494.00,VWS V14.01,2013-05-25 15:59:00,
2013-05-25 12:09:00,43.6,41.2,29.73,NE,42,15.0,17.0,91,0.00,,-RA,0.44,522.00,VWS V14.01,2013-05-25 16:09:00,
2013-05-25 12:19:00,43.2,40.8,29.73,NW,310,11.0,18.0,91,0.00,,-RA,0.44,410.00,VWS V14.01,2013-05-25 16:19:00,
2013-05-25 12:29:00,43.0,40.6,29.73,North,349,9.0,30.0,91,0.00,,-RA,0.44,383.00,VWS V14.01,2013-05-25 16:29:00,
2013-05-25 12:39:00,42.3,39.9,29.73,NNW,336,3.0,18.0,91,0.00,,-RA,0.44,283.00,VWS V14.01,2013-05-25 16:39:00,
2013-05-25 12:49:00,42.4,40.2,29.73,NNW,329,6.0,19.0,92,0.00,,-RA,0.44,332.00,VWS V14.01,2013-05-25 16:49:00,
2013-05-25 12:59:00,42.2,39.8,29.73,NNW,341,9.0,18.0,91,0.00,,-RA,0.44,204.00,VWS V14.01,2013-05-25 16:59:00,
2013-05-25 13:09:00,41.6,39.2,29.73,NW,321,11.0,22.0,91,0.00,,-RA,0.44,250.00,VWS V14.01,2013-05-25 17:09:00,
2013-05-25 13:19:00,41.4,39.2,29.73,NW,313,3.0,22.0,92,0.00,,-RA,0.44,239.00,VWS V14.01,2013-05-25 17:19:00,
2013-05-25 13:29:00,41.2,39.1,29.73,NNW,345,12.0,25.0,92,0.01,,-RA,0.45,315.00,VWS V14.01,2013-05-25 17:29:00,
2013-05-25 13:39:00,41.2,39.1,29.73,NNW,348,9.0,23.0,92,0.01,,-RA,0.45,325.00,VWS V14.01,2013-05-25 17:39:00,
2013-05-25 13:49:00,41.5,39.3,29.73,NNW,334,17.0,17.0,92,0.02,,-RA,0.46,334.00,VWS V14.01,2013-05-25 17:49:00,
2013-05-25 13:59:00,41.6,39.7,29.73,NNW,334,7.0,21.0,93,0.02,,-RA,0.46,285.00,VWS V14.01,2013-05-25 17:59:00,
2013-05-25 14:09:00,41.5,39.3,29.73,NNW,327,9.0,19.0,92,0.02,,-RA,0.46,316.00,VWS V14.01,2013-05-25 18:09:00,
2013-05-25 14:19:00,41.2,39.1,29.74,NW,322,13.0,20.0,92,0.02,,-RA,0.46,329.00,VWS V14.01,2013-05-25 18:19:00,
2013-05-25 14:29:00,40.8,38.4,29.74,NNW,327,7.0,26.0,91,0.03,,-RA,0.47,294.00,VWS V14.01,2013-05-25 18:29:00,
2013-05-25 14:39:00,40.4,38.3,29.73,NNW,336,18.0,22.0,92,0.02,,-RA,0.47,294.00,VWS V14.01,2013-05-25 18:39:00,
2013-05-25 14:49:00,40.1,38.0,29.73,NNW,342,11.0,28.0,92,0.02,,-RA,0.47,287.00,VWS V14.01,2013-05-25 18:49:00,
2013-05-25 14:59:00,39.6,37.5,29.73,NNW,338,11.0,24.0,92,0.01,,-RA,0.47,225.00,VWS V14.01,2013-05-25 18:59:00,
2013-05-25 15:09:00,39.2,37.1,29.73,NNW,334,12.0,30.0,92,0.01,,-RA,0.47,220.00,VWS V14.01,2013-05-25 19:09:00,
2013-05-25 15:19:00,39.1,37.0,29.73,NW,313,4.0,26.0,92,0.01,,-RA,0.47,221.00,VWS V14.01,2013-05-25 19:19:00,
2013-05-25 15:29:00,38.9,36.8,29.73,NW,313,16.0,22.0,92,0.01,,-RA,0.47,230.00,VWS V14.01,2013-05-25 19:29:00,
2013-05-25 15:39:00,38.6,36.5,29.73,NW,322,7.0,27.0,92,0.01,,-RA,0.48,200.00,VWS V14.01,2013-05-25 19:39:00,
2013-05-25 15:49:00,38.6,36.5,29.73,NW,321,4.0,23.0,92,0.01,,-RA,0.48,178.00,VWS V14.01,2013-05-25 19:49:00,
2013-05-25 15:59:00,38.3,36.2,29.73,NNW,333,10.0,22.0,92,0.01,,-RA,0.48,153.00,VWS V14.01,2013-05-25 19:59:00,
2013-05-25 16:09:00,38.1,36.0,29.73,NNW,337,19.0,23.0,92,0.01,,-RA,0.48,148.00,VWS V14.01,2013-05-25 20:09:00,
2013-05-25 16:19:00,38.0,35.9,29.73,WNW,292,14.0,25.0,92,0.01,,-RA,0.48,148.00,VWS V14.01,2013-05-25 20:19:00,
2013-05-25 16:29:00,38.0,35.9,29.73,NNW,340,13.0,23.0,92,0.01,,-RA,0.48,135.00,VWS V14.01,2013-05-25 20:29:00,
2013-05-25 16:39:00,37.8,35.7,29.73,NNW,329,5.0,24.0,92,0.01,,-RA,0.48,98.00,VWS V14.01,2013-05-25 20:39:00,
2013-05-25 16:49:00,37.6,35.5,29.73,NW,321,14.0,24.0,92,0.01,,-RA,0.49,97.00,VWS V14.01,2013-05-25 20:49:00,
2013-05-25 16:59:00,37.5,35.4,29.73,NNW,327,11.0,27.0,92,0.01,,-RA,0.49,93.00,VWS V14.01,2013-05-25 20:59:00,
2013-05-25 17:09:00,37.4,35.3,29.73,NW,313,4.0,24.0,92,0.01,,-RA,0.49,86.00,VWS V14.01,2013-05-25 21:09:00,
2013-05-25 17:19:00,37.3,35.2,29.73,NNW,338,10.0,27.0,92,0.02,,-RA,0.50,86.00,VWS V14.01,2013-05-25 21:19:00,
2013-05-25 17:29:00,37.2,35.1,29.73,WNW,287,9.0,25.0,92,0.02,,-RA,0.50,76.00,VWS V14.01,2013-05-25 21:29:00,
2013-05-25 17:39:00,37.1,35.0,29.73,NW,305,7.0,24.0,92,0.02,,-RA,0.50,63.00,VWS V14.01,2013-05-25 21:39:00,
2013-05-25 17:49:00,37.0,34.9,29.74,WNW,284,2.0,25.0,92,0.02,,,0.50,58.00,VWS V14.01,2013-05-25 21:49:00,
2013-05-25 17:59:00,36.8,34.7,29.74,WNW,302,14.0,25.0,92,0.02,,,0.51,46.00,VWS V14.01,2013-05-25 21:59:00,
2013-05-25 18:09:00,36.8,34.7,29.73,WNW,298,10.0,27.0,92,0.02,,,0.51,44.00,VWS V14.01,2013-05-25 22:09:00,
2013-05-25 18:19:00,36.8,35.0,29.74,North,360,11.0,25.0,93,0.02,,,0.51,51.00,VWS V14.01,2013-05-25 22:19:00,
2013-05-25 18:29:00,36.7,34.6,29.74,NW,323,12.0,25.0,92,0.01,,,0.51,35.00,VWS V14.01,2013-05-25 22:29:00,
2013-05-25 18:39:00,36.6,34.8,29.74,NNW,338,9.0,20.0,93,0.02,,,0.52,26.00,VWS V14.01,2013-05-25 22:39:00,
2013-05-25 18:49:00,36.6,34.8,29.74,WNW,294,14.0,20.0,93,0.02,,,0.52,19.00,VWS V14.01,2013-05-25 22:49:00,
2013-05-25 18:59:00,36.6,34.5,29.75,NNW,329,7.0,19.0,92,0.02,,-RA,0.52,16.00,VWS V14.01,2013-05-25 22:59:00,
2013-05-25 19:09:00,36.6,34.5,29.75,NW,304,4.0,23.0,92,0.01,,-RA,0.52,14.00,VWS V14.01,2013-05-25 23:09:00,
2013-05-25 19:19:00,36.7,34.9,29.75,NW,309,8.0,17.0,93,0.01,,-RA,0.52,9.00,VWS V14.01,2013-05-25 23:19:00,
2013-05-25 19:29:00,36.8,34.7,29.75,NNW,336,11.0,20.0,92,0.01,,-RA,0.52,5.00,VWS V14.01,2013-05-25 23:29:00,
2013-05-25 19:39:00,36.8,34.7,29.75,NW,326,3.0,19.0,92,0.01,,-RA,0.52,7.00,VWS V14.01,2013-05-25 23:39:00,
2013-05-25 19:49:00,36.8,34.4,29.75,WNW,300,10.0,23.0,91,0.00,,OVC020,0.52,7.00,VWS V14.01,2013-05-25 23:49:00,
2013-05-25 19:59:00,36.8,34.4,29.75,NNW,332,3.0,18.0,91,0.00,,OVC020,0.52,0.00,VWS V14.01,2013-05-25 23:59:00,
2013-05-25 20:09:00,36.6,34.5,29.75,NW,313,11.0,28.0,92,0.00,,OVC020,0.52,0.00,VWS V14.01,2013-05-26 00:09:00,
2013-05-25 20:19:00,36.6,34.2,29.75,NW,323,13.0,20.0,91,0.00,,OVC030,0.52,0.00,VWS V14.01,2013-05-26 00:19:00,
2013-05-25 20:29:00,36.5,34.1,29.74,NW,321,15.0,24.0,91,0.00,,OVC030,0.52,0.00,VWS V14.01,2013-05-26 00:29:00,
2013-05-25 20:39:00,36.4,34.0,29.74,NW,311,14.0,24.0,91,0.00,,OVC030,0.52,0.00,VWS V14.01,2013-05-26 00:39:00,
2013-05-25 20:49:00,36.2,33.8,29.75,NW,319,15.0,23.0,91,0.00,,OVC030,0.52,0.00,VWS V14.01,2013-05-26 00:49:00,
2013-05-25 20:59:00,36.1,33.7,29.74,NW,315,13.0,29.0,91,0.00,,OVC030,0.52,0.00,VWS V14.01,2013-05-26 00:59:00,
2013-05-25 21:09:00,35.8,33.4,29.75,NW,319,9.0,21.0,91,0.01,,OVC030,0.53,0.00,VWS V14.01,2013-05-26 01:09:00,
2013-05-25 21:19:00,35.9,33.5,29.75,NW,320,7.0,23.0,91,0.01,,OVC030,0.53,0.00,VWS V14.01,2013-05-26 01:19:00,
2013-05-25 21:29:00,35.7,33.3,29.75,WNW,302,10.0,27.0,91,0.01,,OVC030,0.53,0.00,VWS V14.01,2013-05-26 01:29:00,
2013-05-25 21:39:00,35.7,33.3,29.75,NW,316,15.0,23.0,91,0.02,,OVC030,0.54,0.00,VWS V14.01,2013-05-26 01:39:00,
2013-05-25 21:49:00,35.4,33.0,29.75,NNW,329,5.0,25.0,91,0.02,,OVC038,0.54,0.00,VWS V14.01,2013-05-26 01:49:00,
2013-05-25 21:59:00,35.2,33.1,29.75,NNW,341,8.0,22.0,92,0.03,,OVC038,0.55,0.00,VWS V14.01,2013-05-26 01:59:00,
2013-05-25 22:09:00,35.0,32.9,29.75,NNW,329,6.0,25.0,92,0.03,,OVC038,0.55,0.00,VWS V14.01,2013-05-26 02:09:00,
2013-05-25 22:19:00,34.7,32.3,29.75,NW,304,5.0,26.0,91,0.03,,OVC038,0.56,0.00,VWS V14.01,2013-05-26 02:19:00,
2013-05-25 22:29:00,33.6,31.3,29.74,NNW,344,6.0,21.0,91,0.04,,OVC038,0.57,0.00,VWS V14.01,2013-05-26 02:29:00,
2013-05-25 22:39:00,33.2,31.4,29.74,WNW,291,12.0,19.0,93,0.06,,OVC038,0.59,0.00,VWS V14.01,2013-05-26 02:39:00,
2013-05-25 22:49:00,33.6,31.8,29.74,North,355,12.0,20.0,93,0.07,,OVC040,0.61,0.00,VWS V14.01,2013-05-26 02:49:00,
2013-05-25 22:59:00,33.9,32.1,29.74,NW,319,7.0,25.0,93,0.08,,OVC040,0.62,0.00,VWS V14.01,2013-05-26 02:59:00,
2013-05-25 23:09:00,34.1,32.3,29.74,NW,319,15.0,20.0,93,0.08,,OVC040,0.63,0.00,VWS V14.01,2013-05-26 03:09:00,
2013-05-25 23:19:00,34.1,32.0,29.73,NNW,344,14.0,33.0,92,0.08,,OVC040,0.63,0.00,VWS V14.01,2013-05-26 03:19:00,
2013-05-25 23:29:00,34.2,32.1,29.73,NNW,330,20.0,20.0,92,0.08,,OVC040,0.64,0.00,VWS V14.01,2013-05-26 03:29:00,
2013-05-25 23:39:00,34.2,32.1,29.73,NW,326,14.0,23.0,92,0.07,,OVC040,0.64,0.00,VWS V14.01,2013-05-26 03:39:00,
2013-05-25 23:49:00,34.1,32.0,29.73,NNW,340,9.0,22.0,92,0.05,,OVC017,0.64,0.00,VWS V14.01,2013-05-26 03:49:00,
2013-05-25 23:59:00,33.9,31.8,29.73,North,355,14.0,24.0,92,0.03,,OVC017,0.64,0.00,VWS V14.01,2013-05-26 03:59:00,